Time,TemperatureF,DewpointF,PressureIn,WindDirection,WindDirectionDegrees,WindSpeedMPH,WindSpeedGustMPH,Humidity,HourlyPrecipIn,Conditions,Clouds,dailyrainin,SoftwareType,DateUTC
2013-08-23 00:01:00,74.4,72.2,30.01,SW,222,2.0,2.0,93,0.00,,,0.00,Wunderground v.1.15,2013-08-23 04:01:00,
2013-08-23 00:03:00,74.3,72.1,30.01,SW,222,2.0,2.0,93,0.00,,,0.00,Wunderground v.1.15,2013-08-23 04:03:00,
2013-08-23 00:04:00,74.2,72.0,30.01,SW,222,2.0,2.0,93,0.00,,,0.00,Wunderground v.1.15,2013-08-23 04:04:00,
2013-08-23 00:06:00,74.1,71.9,30.02,SW,222,2.0,2.0,93,0.00,,,0.00,Wunderground v.1.15,2013-08-23 04:06:00,
2013-08-23 00:10:00,74.0,71.8,30.02,WSW,242,2.0,5.0,93,0.00,,,0.00,Wunderground v.1.15,2013-08-23 04:10:00,
2013-08-23 00:15:00,74.1,71.9,30.02,WSW,252,2.0,5.0,93,0.00,,,0.00,Wunderground v.1.15,2013-08-23 04:15:00,
2013-08-23 00:21:00,74.0,71.8,30.02,WSW,252,1.0,2.0,93,0.00,,,0.00,Wunderground v.1.15,2013-08-23 04:21:00,
2013-08-23 00:27:00,73.9,72.1,30.02,WSW,252,1.0,3.0,94,0.00,,,0.00,Wunderground v.1.15,2013-08-23 04:27:00,
2013-08-23 00:33:00,73.9,71.7,30.02,WSW,245,2.0,3.0,93,0.00,,,0.00,Wunderground v.1.15,2013-08-23 04:33:00,
2013-08-23 00:38:00,73.9,71.7,30.02,South,179,3.0,4.0,93,0.00,,,0.00,Wunderground v.1.15,2013-08-23 04:38:00,
2013-08-23 00:44:00,73.8,71.6,30.01,SSW,201,2.0,3.0,93,0.00,,,0.00,Wunderground v.1.15,2013-08-23 04:44:00,
2013-08-23 00:50:00,73.5,71.4,30.01,SSW,201,1.0,1.0,93,0.00,,,0.00,Wunderground v.1.15,2013-08-23 04:50:00,
2013-08-23 00:56:00,73.3,71.5,30.01,SSW,201,1.0,1.0,94,0.00,,,0.00,Wunderground v.1.15,2013-08-23 04:56:00,
2013-08-23 01:01:00,73.2,71.4,30.01,SSW,201,1.0,1.0,94,0.00,,,0.00,Wunderground v.1.15,2013-08-23 05:01:00,
2013-08-23 01:06:00,72.9,71.1,30.01,SSW,201,1.0,1.0,94,0.00,,,0.00,Wunderground v.1.15,2013-08-23 05:06:00,
2013-08-23 01:12:00,72.7,70.9,30.00,SSW,201,0.0,2.0,94,0.00,,,0.00,Wunderground v.1.15,2013-08-23 05:12:00,
2013-08-23 01:18:00,72.5,71.0,30.00,SSW,201,2.0,3.0,95,0.00,,,0.00,Wunderground v.1.15,2013-08-23 05:18:00,
2013-08-23 01:24:00,72.3,70.8,30.00,SSW,201,2.0,3.0,95,0.00,,,0.00,Wunderground v.1.15,2013-08-23 05:24:00,
2013-08-23 01:29:00,72.1,70.3,30.00,SW,226,3.0,4.0,94,0.00,,,0.00,Wunderground v.1.15,2013-08-23 05:29:00,
2013-08-23 01:34:00,72.2,70.4,30.00,WSW,251,3.0,3.0,94,0.00,,,0.00,Wunderground v.1.15,2013-08-23 05:34:00,
2013-08-23 01:40:00,72.2,70.4,30.00,WSW,251,2.0,2.0,94,0.00,,,0.00,Wunderground v.1.15,2013-08-23 05:40:00,
2013-08-23 01:46:00,72.1,70.0,30.00,WSW,251,1.0,2.0,93,0.00,,,0.00,Wunderground v.1.15,2013-08-23 05:46:00,
2013-08-23 01:52:00,72.1,70.0,30.00,WSW,251,0.0,0.0,93,0.00,,,0.00,Wunderground v.1.15,2013-08-23 05:52:00,
2013-08-23 01:57:00,72.1,69.6,30.00,WSW,251,0.0,3.0,92,0.00,,,0.00,Wunderground v.1.15,2013-08-23 05:57:00,
2013-08-23 02:03:00,72.1,69.3,29.99,WSW,251,1.0,2.0,91,0.00,,,0.00,Wunderground v.1.15,2013-08-23 06:03:00,
2013-08-23 02:09:00,72.1,69.3,29.99,WSW,252,1.0,2.0,91,0.00,,,0.00,Wunderground v.1.15,2013-08-23 06:09:00,
2013-08-23 02:14:00,72.0,69.2,29.99,West,277,1.0,3.0,91,0.00,,,0.00,Wunderground v.1.15,2013-08-23 06:14:00,
2013-08-23 02:20:00,71.9,68.8,29.98,West,276,1.0,1.0,90,0.00,,,0.00,Wunderground v.1.15,2013-08-23 06:20:00,
2013-08-23 02:26:00,71.7,68.3,29.98,West,272,1.0,2.0,89,0.00,,,0.00,Wunderground v.1.15,2013-08-23 06:26:00,
2013-08-23 02:32:00,71.5,68.4,29.98,WNW,302,2.0,3.0,90,0.00,,,0.00,Wunderground v.1.15,2013-08-23 06:32:00,
2013-08-23 02:37:00,71.4,68.3,29.98,West,281,2.0,3.0,90,0.00,,,0.00,Wunderground v.1.15,2013-08-23 06:37:00,
2013-08-23 02:43:00,71.1,68.0,29.97,WNW,300,1.0,2.0,90,0.00,,,0.00,Wunderground v.1.15,2013-08-23 06:43:00,
2013-08-23 02:49:00,71.0,67.9,29.97,WNW,295,1.0,2.0,90,0.00,,,0.00,Wunderground v.1.15,2013-08-23 06:49:00,
2013-08-23 02:54:00,70.8,67.7,29.96,WNW,295,1.0,1.0,90,0.00,,,0.00,Wunderground v.1.15,2013-08-23 06:54:00,
2013-08-23 03:00:00,70.6,67.8,29.96,WNW,295,0.0,0.0,91,0.00,,,0.00,Wunderground v.1.15,2013-08-23 07:00:00,
2013-08-23 03:06:00,70.6,67.8,29.96,NNW,328,1.0,2.0,91,0.00,,,0.00,Wunderground v.1.15,2013-08-23 07:06:00,
2013-08-23 03:12:00,70.5,67.7,29.96,West,261,1.0,3.0,91,0.00,,,0.00,Wunderground v.1.15,2013-08-23 07:12:00,
2013-08-23 03:17:00,70.5,67.7,29.96,NW,307,1.0,3.0,91,0.00,,,0.00,Wunderground v.1.15,2013-08-23 07:17:00,
2013-08-23 03:23:00,70.5,67.7,29.95,NNW,331,1.0,2.0,91,0.00,,,0.00,Wunderground v.1.15,2013-08-23 07:23:00,
2013-08-23 03:29:00,70.4,67.6,29.95,NNW,329,1.0,2.0,91,0.00,,,0.00,Wunderground v.1.15,2013-08-23 07:29:00,
2013-08-23 03:35:00,70.3,67.5,29.95,NW,304,1.0,3.0,91,0.00,,,0.00,Wunderground v.1.15,2013-08-23 07:35:00,
2013-08-23 03:40:00,70.2,67.4,29.95,WSW,237,1.0,1.0,91,0.00,,,0.00,Wunderground v.1.15,2013-08-23 07:40:00,
2013-08-23 03:46:00,70.1,67.3,29.95,WSW,250,0.0,1.0,91,0.00,,,0.00,Wunderground v.1.15,2013-08-23 07:46:00,
2013-08-23 03:52:00,70.0,67.3,29.95,WSW,250,0.0,0.0,91,0.00,,,0.00,Wunderground v.1.15,2013-08-23 07:52:00,
2013-08-23 03:57:00,69.9,67.5,29.95,WSW,250,0.0,0.0,92,0.00,,,0.00,Wunderground v.1.15,2013-08-23 07:57:00,
2013-08-23 04:03:00,69.8,67.4,29.95,WSW,250,0.0,1.0,92,0.00,,,0.00,Wunderground v.1.15,2013-08-23 08:03:00,
2013-08-23 04:09:00,69.7,67.3,29.95,WSW,250,0.0,1.0,92,0.00,,,0.00,Wunderground v.1.15,2013-08-23 08:09:00,
2013-08-23 04:15:00,69.7,67.3,29.96,WSW,250,0.0,0.0,92,0.00,,,0.00,Wunderground v.1.15,2013-08-23 08:15:00,
2013-08-23 04:20:00,69.7,67.0,29.96,NW,310,0.0,0.0,91,0.00,,,0.00,Wunderground v.1.15,2013-08-23 08:20:00,
2013-08-23 04:26:00,69.6,66.9,29.96,NW,304,0.0,1.0,91,0.00,,,0.00,Wunderground v.1.15,2013-08-23 08:26:00,
2013-08-23 04:32:00,69.4,67.0,29.96,NW,304,0.0,1.0,92,0.00,,,0.00,Wunderground v.1.15,2013-08-23 08:32:00,
2013-08-23 04:38:00,69.4,67.0,29.96,NW,304,0.0,2.0,92,0.00,,,0.00,Wunderground v.1.15,2013-08-23 08:38:00,
2013-08-23 04:43:00,69.3,66.9,29.96,WNW,303,0.0,1.0,92,0.00,,,0.00,Wunderground v.1.15,2013-08-23 08:43:00,
2013-08-23 04:49:00,69.2,66.8,29.96,WNW,303,0.0,1.0,92,0.00,,,0.00,Wunderground v.1.15,2013-08-23 08:49:00,
2013-08-23 04:55:00,69.1,67.0,29.96,WNW,303,1.0,3.0,93,0.00,,,0.00,Wunderground v.1.15,2013-08-23 08:55:00,
2013-08-23 05:00:00,68.9,66.8,29.96,WNW,301,2.0,3.0,93,0.00,,,0.00,Wunderground v.1.15,2013-08-23 09:00:00,
2013-08-23 05:06:00,68.8,66.7,29.97,NNW,339,1.0,3.0,93,0.00,,,0.00,Wunderground v.1.15,2013-08-23 09:06:00,
2013-08-23 05:12:00,68.8,66.7,29.96,NNW,333,1.0,2.0,93,0.00,,,0.00,Wunderground v.1.15,2013-08-23 09:12:00,
2013-08-23 05:18:00,68.8,66.7,29.97,NNW,333,0.0,2.0,93,0.00,,,0.00,Wunderground v.1.15,2013-08-23 09:18:00,
2013-08-23 05:23:00,68.8,66.7,29.97,NNW,333,0.0,0.0,93,0.00,,,0.00,Wunderground v.1.15,2013-08-23 09:23:00,
2013-08-23 05:29:00,68.8,66.7,29.97,NNW,333,0.0,2.0,93,0.00,,,0.00,Wunderground v.1.15,2013-08-23 09:29:00,
2013-08-23 05:35:00,68.8,66.7,29.97,NW,325,1.0,3.0,93,0.00,,,0.00,Wunderground v.1.15,2013-08-23 09:35:00,
2013-08-23 05:41:00,68.7,66.6,29.97,NW,325,1.0,3.0,93,0.00,,,0.00,Wunderground v.1.15,2013-08-23 09:41:00,
2013-08-23 05:46:00,68.7,66.9,29.97,WNW,286,2.0,3.0,94,0.00,,,0.00,Wunderground v.1.15,2013-08-23 09:46:00,
2013-08-23 05:52:00,68.6,66.8,29.97,WNW,286,1.0,2.0,94,0.00,,,0.00,Wunderground v.1.15,2013-08-23 09:52:00,
2013-08-23 05:58:00,68.6,66.8,29.97,WNW,286,1.0,2.0,94,0.00,,,0.00,Wunderground v.1.15,2013-08-23 09:58:00,
2013-08-23 06:04:00,68.7,66.9,29.97,WNW,286,0.0,0.0,94,0.00,,,0.00,Wunderground v.1.15,2013-08-23 10:04:00,
2013-08-23 06:09:00,68.8,67.0,29.97,WNW,286,0.0,1.0,94,0.00,,,0.00,Wunderground v.1.15,2013-08-23 10:09:00,
2013-08-23 06:15:00,68.9,67.1,29.97,WNW,286,0.0,0.0,94,0.00,,,0.00,Wunderground v.1.15,2013-08-23 10:15:00,
2013-08-23 06:21:00,69.0,67.2,29.98,WNW,286,0.0,0.0,94,0.00,,,0.00,Wunderground v.1.15,2013-08-23 10:21:00,
2013-08-23 06:26:00,69.0,67.2,29.98,WNW,287,0.0,1.0,94,0.00,,,0.00,Wunderground v.1.15,2013-08-23 10:26:00,
2013-08-23 06:32:00,69.0,66.9,29.98,WNW,287,0.0,0.0,93,0.00,,,0.00,Wunderground v.1.15,2013-08-23 10:32:00,
2013-08-23 06:38:00,69.0,66.9,29.98,WNW,287,0.0,2.0,93,0.00,,,0.00,Wunderground v.1.15,2013-08-23 10:38:00,
2013-08-23 06:43:00,69.0,66.9,29.98,WNW,287,0.0,2.0,93,0.00,,,0.00,Wunderground v.1.15,2013-08-23 10:43:00,
2013-08-23 06:49:00,68.9,67.1,29.99,WNW,287,0.0,2.0,94,0.00,,,0.00,Wunderground v.1.15,2013-08-23 10:49:00,
2013-08-23 06:55:00,68.9,67.1,29.99,WNW,287,0.0,1.0,94,0.00,,,0.00,Wunderground v.1.15,2013-08-23 10:55:00,
2013-08-23 07:00:00,68.9,67.1,29.99,WNW,287,0.0,1.0,94,0.00,,,0.00,Wunderground v.1.15,2013-08-23 11:00:00,
2013-08-23 07:05:00,69.0,67.2,29.99,WNW,287,0.0,1.0,94,0.00,,,0.00,Wunderground v.1.15,2013-08-23 11:05:00,
2013-08-23 07:11:00,69.0,67.2,29.99,WNW,287,1.0,1.0,94,0.00,,,0.00,Wunderground v.1.15,2013-08-23 11:11:00,
2013-08-23 07:16:00,69.0,67.2,30.00,WNW,287,1.0,2.0,94,0.00,,,0.00,Wunderground v.1.15,2013-08-23 11:16:00,
2013-08-23 07:22:00,69.0,67.2,30.00,WNW,287,0.0,0.0,94,0.00,,,0.00,Wunderground v.1.15,2013-08-23 11:22:00,
2013-08-23 07:28:00,69.2,67.4,30.00,WNW,287,0.0,1.0,94,0.00,,,0.00,Wunderground v.1.15,2013-08-23 11:28:00,
2013-08-23 07:34:00,69.3,67.5,30.00,WNW,287,0.0,0.0,94,0.00,,,0.00,Wunderground v.1.15,2013-08-23 11:34:00,
2013-08-23 07:39:00,69.4,67.6,30.00,WNW,287,0.0,1.0,94,0.00,,,0.00,Wunderground v.1.15,2013-08-23 11:39:00,
2013-08-23 07:45:00,69.6,67.8,30.00,WNW,287,0.0,0.0,94,0.00,,,0.00,Wunderground v.1.15,2013-08-23 11:45:00,
2013-08-23 07:51:00,69.9,68.1,30.00,WNW,287,0.0,2.0,94,0.00,,,0.00,Wunderground v.1.15,2013-08-23 11:51:00,
2013-08-23 07:57:00,70.1,68.3,30.00,WNW,287,1.0,2.0,94,0.00,,,0.00,Wunderground v.1.15,2013-08-23 11:57:00,
2013-08-23 08:03:00,70.1,68.0,30.00,WNW,287,1.0,1.0,93,0.00,,,0.00,Wunderground v.1.15,2013-08-23 12:03:00,
2013-08-23 08:08:00,70.2,68.1,30.00,WNW,287,2.0,4.0,93,0.00,,,0.00,Wunderground v.1.15,2013-08-23 12:08:00,
2013-08-23 08:14:00,70.2,68.4,30.00,WNW,287,2.0,2.0,94,0.00,,,0.00,Wunderground v.1.15,2013-08-23 12:14:00,
2013-08-23 08:20:00,70.4,68.3,30.00,WNW,287,1.0,2.0,93,0.00,,,0.00,Wunderground v.1.15,2013-08-23 12:20:00,
2013-08-23 08:25:00,70.6,68.8,30.01,WNW,287,1.0,2.0,94,0.00,,,0.00,Wunderground v.1.15,2013-08-23 12:25:00,
2013-08-23 08:31:00,71.0,68.9,30.01,WSW,254,2.0,4.0,93,0.00,,,0.00,Wunderground v.1.15,2013-08-23 12:31:00,
2013-08-23 08:37:00,71.4,69.3,30.01,WSW,245,2.0,4.0,93,0.00,,,0.00,Wunderground v.1.15,2013-08-23 12:37:00,
2013-08-23 08:43:00,71.6,69.2,30.01,West,262,3.0,5.0,92,0.00,,,0.00,Wunderground v.1.15,2013-08-23 12:43:00,
2013-08-23 08:48:00,71.8,69.3,30.00,WNW,302,3.0,5.0,92,0.00,,,0.00,Wunderground v.1.15,2013-08-23 12:48:00,
2013-08-23 08:54:00,72.2,69.4,30.00,West,261,1.0,4.0,91,0.00,,,0.00,Wunderground v.1.15,2013-08-23 12:54:00,
2013-08-23 09:00:00,72.9,70.1,30.00,West,270,2.0,2.0,91,0.00,,,0.00,Wunderground v.1.15,2013-08-23 13:00:00,
2013-08-23 09:06:00,73.4,70.3,30.00,West,267,2.0,4.0,90,0.00,,,0.00,Wunderground v.1.15,2013-08-23 13:06:00,
2013-08-23 09:11:00,74.0,70.9,30.00,West,269,2.0,2.0,90,0.00,,,0.00,Wunderground v.1.15,2013-08-23 13:11:00,
2013-08-23 09:17:00,74.5,70.7,30.00,West,271,1.0,3.0,88,0.00,,,0.00,Wunderground v.1.15,2013-08-23 13:17:00,
2013-08-23 09:23:00,74.9,71.1,29.99,WNW,286,1.0,2.0,88,0.00,,,0.00,Wunderground v.1.15,2013-08-23 13:23:00,
2013-08-23 09:29:00,75.1,71.0,29.99,North,360,1.0,3.0,87,0.00,,,0.00,Wunderground v.1.15,2013-08-23 13:29:00,
2013-08-23 09:34:00,75.1,71.0,29.99,North,360,1.0,4.0,87,0.00,,,0.00,Wunderground v.1.15,2013-08-23 13:34:00,
2013-08-23 09:40:00,75.1,71.3,30.00,North,360,0.0,3.0,88,0.00,,,0.00,Wunderground v.1.15,2013-08-23 13:40:00,
2013-08-23 09:46:00,75.0,71.2,30.00,North,360,1.0,3.0,88,0.00,,,0.00,Wunderground v.1.15,2013-08-23 13:46:00,
2013-08-23 09:52:00,75.0,71.2,30.00,WSW,244,1.0,4.0,88,0.00,,,0.00,Wunderground v.1.15,2013-08-23 13:52:00,
2013-08-23 09:57:00,74.9,71.1,30.00,WSW,240,2.0,4.0,88,0.00,,,0.00,Wunderground v.1.15,2013-08-23 13:57:00,
2013-08-23 10:03:00,74.9,71.4,30.00,SW,235,3.0,4.0,89,0.00,,,0.00,Wunderground v.1.15,2013-08-23 14:03:00,
2013-08-23 10:09:00,75.1,71.6,30.00,SW,235,2.0,4.0,89,0.00,,,0.00,Wunderground v.1.15,2013-08-23 14:09:00,
2013-08-23 10:15:00,75.2,71.7,30.00,WSW,240,1.0,2.0,89,0.00,,,0.00,Wunderground v.1.15,2013-08-23 14:15:00,
2013-08-23 10:20:00,75.3,71.5,30.01,WSW,242,3.0,4.0,88,0.00,,,0.00,Wunderground v.1.15,2013-08-23 14:20:00,
2013-08-23 10:26:00,75.4,71.6,30.01,WSW,244,4.0,5.0,88,0.00,,,0.00,Wunderground v.1.15,2013-08-23 14:26:00,
2013-08-23 10:32:00,75.6,72.1,30.01,WSW,244,3.0,3.0,89,0.00,,,0.00,Wunderground v.1.15,2013-08-23 14:32:00,
2013-08-23 10:38:00,75.8,72.0,30.01,WSW,244,1.0,3.0,88,0.00,,,0.00,Wunderground v.1.15,2013-08-23 14:38:00,
2013-08-23 10:43:00,76.0,72.2,30.01,WSW,244,1.0,2.0,88,0.00,,,0.00,Wunderground v.1.15,2013-08-23 14:43:00,
2013-08-23 10:49:00,76.4,72.6,30.01,WSW,244,1.0,2.0,88,0.00,,,0.00,Wunderground v.1.15,2013-08-23 14:49:00,
2013-08-23 10:55:00,76.5,72.0,30.01,WSW,244,1.0,2.0,86,0.00,,,0.00,Wunderground v.1.15,2013-08-23 14:55:00,
2013-08-23 11:00:00,76.9,72.7,30.01,WSW,242,1.0,4.0,87,0.00,,,0.00,Wunderground v.1.15,2013-08-23 15:00:00,
2013-08-23 11:05:00,77.3,72.4,30.01,WSW,248,2.0,4.0,85,0.00,,,0.00,Wunderground v.1.15,2013-08-23 15:05:00,
2013-08-23 11:11:00,77.8,72.9,30.01,WSW,248,2.0,3.0,85,0.00,,,0.00,Wunderground v.1.15,2013-08-23 15:11:00,
2013-08-23 11:17:00,78.3,73.1,30.01,WSW,252,3.0,4.0,84,0.00,,,0.00,Wunderground v.1.15,2013-08-23 15:17:00,
2013-08-23 11:23:00,78.7,73.1,30.01,WSW,244,4.0,4.0,83,0.00,,,0.00,Wunderground v.1.15,2013-08-23 15:23:00,
2013-08-23 11:28:00,79.2,73.9,30.01,SW,236,2.0,6.0,84,0.00,,,0.00,Wunderground v.1.15,2013-08-23 15:28:00,
2013-08-23 11:34:00,79.9,73.5,30.01,SW,232,2.0,3.0,81,0.00,,,0.00,Wunderground v.1.15,2013-08-23 15:34:00,
2013-08-23 11:40:00,80.2,73.8,30.01,West,263,2.0,2.0,81,0.00,,,0.00,Wunderground v.1.15,2013-08-23 15:40:00,
2013-08-23 11:46:00,80.6,75.0,30.01,NNW,347,2.0,4.0,83,0.00,,,0.00,Wunderground v.1.15,2013-08-23 15:46:00,
2013-08-23 11:52:00,80.9,73.8,30.01,West,261,2.0,4.0,79,0.00,,,0.00,Wunderground v.1.15,2013-08-23 15:52:00,
2013-08-23 11:57:00,81.1,73.6,30.00,NNW,346,2.0,4.0,78,0.00,,,0.00,Wunderground v.1.15,2013-08-23 15:57:00,
2013-08-23 12:03:00,81.4,74.6,30.00,North,355,1.0,2.0,80,0.00,,,0.00,Wunderground v.1.15,2013-08-23 16:03:00,
2013-08-23 12:09:00,81.6,74.5,30.00,NNW,328,1.0,2.0,79,0.00,,,0.00,Wunderground v.1.15,2013-08-23 16:09:00,
2013-08-23 12:15:00,82.0,74.5,30.00,North,360,1.0,4.0,78,0.00,,,0.00,Wunderground v.1.15,2013-08-23 16:15:00,
2013-08-23 12:20:00,82.1,74.2,30.00,NW,306,3.0,4.0,77,0.00,,,0.00,Wunderground v.1.15,2013-08-23 16:20:00,
2013-08-23 12:26:00,82.0,74.5,29.99,WSW,238,4.0,7.0,78,0.00,,,0.00,Wunderground v.1.15,2013-08-23 16:26:00,
2013-08-23 12:32:00,82.3,74.7,29.99,WSW,238,3.0,6.0,78,0.00,,,0.00,Wunderground v.1.15,2013-08-23 16:32:00,
2013-08-23 12:38:00,82.8,74.5,29.99,WSW,250,5.0,7.0,76,0.00,,,0.00,Wunderground v.1.15,2013-08-23 16:38:00,
2013-08-23 12:44:00,83.4,75.0,29.99,WSW,250,4.0,5.0,76,0.00,,,0.00,Wunderground v.1.15,2013-08-23 16:44:00,
2013-08-23 12:50:00,83.9,73.5,29.99,WSW,248,5.0,7.0,71,0.00,,,0.00,Wunderground v.1.15,2013-08-23 16:50:00,
2013-08-23 12:56:00,83.9,73.9,29.99,WSW,237,6.0,11.0,72,0.00,,,0.00,Wunderground v.1.15,2013-08-23 16:56:00,
2013-08-23 13:02:00,84.4,74.0,29.99,SW,219,5.0,6.0,71,0.00,,,0.00,Wunderground v.1.15,2013-08-23 17:02:00,
2013-08-23 13:07:00,83.9,73.1,29.98,West,261,5.0,7.0,70,0.00,,,0.00,Wunderground v.1.15,2013-08-23 17:07:00,
2013-08-23 13:13:00,84.4,74.4,29.98,WSW,245,4.0,5.0,72,0.00,,,0.00,Wunderground v.1.15,2013-08-23 17:13:00,
2013-08-23 13:19:00,84.7,73.8,29.98,West,265,3.0,5.0,70,0.00,,,0.00,Wunderground v.1.15,2013-08-23 17:19:00,
2013-08-23 13:25:00,85.3,74.4,29.98,West,266,4.0,9.0,70,0.00,,,0.00,Wunderground v.1.15,2013-08-23 17:25:00,
2013-08-23 13:30:00,85.3,73.1,29.98,West,266,5.0,5.0,67,0.00,,,0.00,Wunderground v.1.15,2013-08-23 17:30:00,
2013-08-23 13:36:00,85.4,74.5,29.98,SW,227,4.0,9.0,70,0.00,,,0.00,Wunderground v.1.15,2013-08-23 17:36:00,
2013-08-23 13:42:00,85.2,74.7,29.98,SW,215,3.0,4.0,71,0.00,,,0.00,Wunderground v.1.15,2013-08-23 17:42:00,
2013-08-23 13:48:00,85.2,73.4,29.97,North,5,3.0,4.0,68,0.00,,,0.00,Wunderground v.1.15,2013-08-23 17:48:00,
2013-08-23 13:53:00,85.2,73.4,29.97,WSW,247,4.0,7.0,68,0.00,,,0.00,Wunderground v.1.15,2013-08-23 17:53:00,
2013-08-23 13:59:00,84.6,73.7,29.97,WNW,297,4.0,7.0,70,0.00,,,0.00,Wunderground v.1.15,2013-08-23 17:59:00,
2013-08-23 14:05:00,84.1,73.7,29.97,NNE,27,2.0,5.0,71,0.00,,,0.00,Wunderground v.1.15,2013-08-23 18:05:00,
2013-08-23 14:11:00,83.6,72.8,29.97,NNW,342,2.0,8.0,70,0.00,,,0.00,Wunderground v.1.15,2013-08-23 18:11:00,
2013-08-23 14:17:00,81.3,73.8,29.98,WNW,300,5.0,8.0,78,0.95,,,0.08,Wunderground v.1.15,2013-08-23 18:17:00,
2013-08-23 14:22:00,76.7,70.4,29.98,North,355,7.0,12.0,81,0.87,,,0.17,Wunderground v.1.15,2013-08-23 18:22:00,
2013-08-23 14:28:00,74.0,70.2,29.97,NNE,17,7.0,12.0,88,0.79,,,0.26,Wunderground v.1.15,2013-08-23 18:28:00,
2013-08-23 14:34:00,73.0,69.6,29.97,NE,39,5.0,6.0,89,0.66,,,0.34,Wunderground v.1.15,2013-08-23 18:34:00,
2013-08-23 14:40:00,74.0,71.5,29.96,NW,314,3.0,3.0,92,0.37,,,0.40,Wunderground v.1.15,2013-08-23 18:40:00,
2013-08-23 14:45:00,75.6,72.5,29.96,NW,314,1.0,3.0,90,0.15,,,0.41,Wunderground v.1.15,2013-08-23 18:45:00,
2013-08-23 14:51:00,77.0,73.8,29.95,NW,314,0.0,1.0,90,0.06,,,0.41,Wunderground v.1.15,2013-08-23 18:51:00,
2013-08-23 14:57:00,78.3,74.5,29.95,NW,314,0.0,1.0,88,0.04,,,0.41,Wunderground v.1.15,2013-08-23 18:57:00,
2013-08-23 15:03:00,79.6,74.7,29.95,NNE,17,0.0,1.0,85,0.00,,,0.41,Wunderground v.1.15,2013-08-23 19:03:00,
2013-08-23 15:08:00,80.6,75.3,29.94,NNE,14,1.0,3.0,84,0.00,,,0.41,Wunderground v.1.15,2013-08-23 19:08:00,
2013-08-23 15:14:00,81.7,74.5,29.94,NNE,14,2.0,4.0,79,0.00,,,0.41,Wunderground v.1.15,2013-08-23 19:14:00,
2013-08-23 15:20:00,82.7,74.4,29.94,NNW,344,2.0,4.0,76,0.00,,,0.41,Wunderground v.1.15,2013-08-23 19:20:00,
2013-08-23 15:26:00,83.3,74.9,29.95,WNW,302,2.0,4.0,76,0.00,,,0.41,Wunderground v.1.15,2013-08-23 19:26:00,
2013-08-23 15:31:00,83.5,75.5,29.94,NNW,344,2.0,3.0,77,0.00,,,0.41,Wunderground v.1.15,2013-08-23 19:31:00,
2013-08-23 15:37:00,83.3,74.9,29.94,NNW,344,1.0,3.0,76,0.00,,,0.41,Wunderground v.1.15,2013-08-23 19:37:00,
2013-08-23 15:43:00,83.2,76.0,29.94,NNW,344,1.0,1.0,79,0.00,,,0.41,Wunderground v.1.15,2013-08-23 19:43:00,
2013-08-23 15:48:00,83.3,75.7,29.94,WNW,292,1.0,4.0,78,0.00,,,0.41,Wunderground v.1.15,2013-08-23 19:48:00,
2013-08-23 15:54:00,83.0,75.4,29.93,WSW,242,2.0,4.0,78,0.00,,,0.41,Wunderground v.1.15,2013-08-23 19:54:00,
2013-08-23 16:00:00,82.8,74.5,29.93,WSW,240,3.0,3.0,76,0.00,,,0.41,Wunderground v.1.15,2013-08-23 20:00:00,
2013-08-23 16:06:00,82.7,75.5,29.93,WSW,246,2.0,3.0,79,0.00,,,0.41,Wunderground v.1.15,2013-08-23 20:06:00,
2013-08-23 16:12:00,82.8,74.5,29.93,WSW,246,1.0,2.0,76,0.00,,,0.41,Wunderground v.1.15,2013-08-23 20:12:00,
2013-08-23 16:17:00,82.7,74.0,29.93,WSW,246,1.0,2.0,75,0.00,,,0.41,Wunderground v.1.15,2013-08-23 20:17:00,
2013-08-23 16:23:00,82.8,74.5,29.93,WSW,247,0.0,1.0,76,0.00,,,0.41,Wunderground v.1.15,2013-08-23 20:23:00,
2013-08-23 16:29:00,82.6,74.3,29.93,WNW,292,1.0,4.0,76,0.00,,,0.41,Wunderground v.1.15,2013-08-23 20:29:00,
2013-08-23 16:34:00,82.6,75.0,29.93,WNW,292,1.0,1.0,78,0.00,,,0.41,Wunderground v.1.15,2013-08-23 20:34:00,
2013-08-23 16:40:00,82.5,75.3,29.93,WNW,292,0.0,0.0,79,0.00,,,0.41,Wunderground v.1.15,2013-08-23 20:40:00,
2013-08-23 16:46:00,82.4,75.2,29.93,WNW,292,0.0,0.0,79,0.00,,,0.41,Wunderground v.1.15,2013-08-23 20:46:00,
2013-08-23 16:52:00,82.2,74.7,29.93,WNW,292,0.0,0.0,78,0.00,,,0.41,Wunderground v.1.15,2013-08-23 20:52:00,
2013-08-23 16:57:00,82.0,74.8,29.93,WNW,283,1.0,3.0,79,0.00,,,0.41,Wunderground v.1.15,2013-08-23 20:57:00,
2013-08-23 17:03:00,82.0,74.8,29.93,WNW,288,1.0,3.0,79,0.00,,,0.41,Wunderground v.1.15,2013-08-23 21:03:00,
2013-08-23 17:09:00,81.8,73.9,29.93,WNW,287,1.0,3.0,77,0.00,,,0.41,Wunderground v.1.15,2013-08-23 21:09:00,
2013-08-23 17:14:00,81.8,74.3,29.93,WNW,286,0.0,1.0,78,0.00,,,0.41,Wunderground v.1.15,2013-08-23 21:14:00,
2013-08-23 17:20:00,81.9,75.1,29.93,WNW,286,0.0,0.0,80,0.00,,,0.41,Wunderground v.1.15,2013-08-23 21:20:00,
2013-08-23 17:26:00,82.1,75.3,29.93,WNW,286,0.0,1.0,80,0.00,,,0.41,Wunderground v.1.15,2013-08-23 21:26:00,
2013-08-23 17:32:00,82.0,75.2,29.93,WNW,290,0.0,0.0,80,0.00,,,0.41,Wunderground v.1.15,2013-08-23 21:32:00,
2013-08-23 17:37:00,82.1,75.3,29.93,West,259,1.0,2.0,80,0.00,,,0.41,Wunderground v.1.15,2013-08-23 21:37:00,
2013-08-23 17:43:00,82.8,75.6,29.93,WSW,255,1.0,4.0,79,0.00,,,0.41,Wunderground v.1.15,2013-08-23 21:43:00,
2013-08-23 17:49:00,83.2,75.2,29.93,WNW,299,2.0,4.0,77,0.00,,,0.41,Wunderground v.1.15,2013-08-23 21:49:00,
2013-08-23 17:54:00,83.5,75.5,29.93,WNW,286,1.0,3.0,77,0.00,,,0.41,Wunderground v.1.15,2013-08-23 21:54:00,
2013-08-23 18:00:00,83.6,74.8,29.93,WNW,285,2.0,3.0,75,0.00,,,0.41,Wunderground v.1.15,2013-08-23 22:00:00,
2013-08-23 18:06:00,83.5,74.7,29.94,WSW,251,3.0,7.0,75,0.00,,,0.41,Wunderground v.1.15,2013-08-23 22:06:00,
2013-08-23 18:12:00,82.9,74.6,29.94,NW,314,2.0,3.0,76,0.00,,,0.41,Wunderground v.1.15,2013-08-23 22:12:00,
2013-08-23 18:18:00,82.4,74.8,29.94,NW,313,1.0,3.0,78,0.00,,,0.41,Wunderground v.1.15,2013-08-23 22:18:00,
2013-08-23 18:23:00,82.3,74.0,29.94,NW,313,0.0,1.0,76,0.00,,,0.41,Wunderground v.1.15,2013-08-23 22:23:00,
2013-08-23 18:29:00,82.3,74.4,29.94,SW,227,1.0,3.0,77,0.00,,,0.41,Wunderground v.1.15,2013-08-23 22:29:00,
2013-08-23 18:35:00,82.7,75.9,29.95,SW,227,0.0,1.0,80,0.00,,,0.41,Wunderground v.1.15,2013-08-23 22:35:00,
2013-08-23 18:41:00,82.9,76.5,29.95,SW,229,0.0,0.0,81,0.00,,,0.41,Wunderground v.1.15,2013-08-23 22:41:00,
2013-08-23 18:47:00,82.3,75.9,29.95,NW,312,0.0,3.0,81,0.00,,,0.41,Wunderground v.1.15,2013-08-23 22:47:00,
2013-08-23 18:53:00,81.7,75.7,29.95,NW,313,0.0,1.0,82,0.00,,,0.41,Wunderground v.1.15,2013-08-23 22:53:00,
2013-08-23 18:59:00,81.3,76.4,29.96,NW,313,0.0,1.0,85,0.00,,,0.41,Wunderground v.1.15,2013-08-23 22:59:00,
2013-08-23 19:04:00,80.8,75.9,29.96,NW,313,0.0,0.0,85,0.00,,,0.41,Wunderground v.1.15,2013-08-23 23:04:00,
2013-08-23 19:10:00,80.2,75.6,29.96,NW,313,0.0,0.0,86,0.00,,,0.41,Wunderground v.1.15,2013-08-23 23:10:00,
2013-08-23 19:16:00,79.7,75.5,29.96,NW,313,0.0,0.0,87,0.00,,,0.41,Wunderground v.1.15,2013-08-23 23:16:00,
2013-08-23 19:21:00,78.8,73.9,29.96,North,5,2.0,16.0,85,0.00,,,0.41,Wunderground v.1.15,2013-08-23 23:21:00,
2013-08-23 19:27:00,77.3,71.4,29.97,NE,42,6.0,16.0,82,0.00,,,0.41,Wunderground v.1.15,2013-08-23 23:27:00,
2013-08-23 19:33:00,76.2,69.9,29.98,North,5,6.0,14.0,81,0.00,,,0.41,Wunderground v.1.15,2013-08-23 23:33:00,
2013-08-23 19:39:00,75.1,69.6,29.98,NNE,16,7.0,14.0,83,0.00,,,0.41,Wunderground v.1.15,2013-08-23 23:39:00,
2013-08-23 19:44:00,74.4,68.5,29.99,NNE,17,8.0,15.0,82,0.00,,,0.41,Wunderground v.1.15,2013-08-23 23:44:00,
2013-08-23 19:50:00,73.9,68.4,29.99,North,9,8.0,8.0,83,0.00,,,0.41,Wunderground v.1.15,2013-08-23 23:50:00,
2013-08-23 19:56:00,73.5,68.4,29.99,North,355,6.0,10.0,84,0.00,,,0.41,Wunderground v.1.15,2013-08-23 23:56:00,
2013-08-23 20:02:00,72.9,68.1,29.99,North,355,6.0,12.0,85,0.00,,,0.41,Wunderground v.1.15,2013-08-24 00:02:00,
2013-08-23 20:07:00,72.5,68.1,30.00,NNE,17,7.0,12.0,86,0.00,,,0.41,Wunderground v.1.15,2013-08-24 00:07:00,
2013-08-23 20:13:00,72.1,68.3,30.00,NNE,22,6.0,12.0,88,0.00,,,0.41,Wunderground v.1.15,2013-08-24 00:13:00,
2013-08-23 20:19:00,71.7,68.3,30.00,NE,42,8.0,12.0,89,0.00,,,0.41,Wunderground v.1.15,2013-08-24 00:19:00,
2013-08-23 20:25:00,71.4,68.3,30.00,NNE,18,7.0,10.0,90,0.00,,,0.41,Wunderground v.1.15,2013-08-24 00:25:00,
2013-08-23 20:30:00,71.3,68.5,30.01,North,5,6.0,6.0,91,0.00,,,0.41,Wunderground v.1.15,2013-08-24 00:30:00,
2013-08-23 20:36:00,71.1,68.3,30.01,NNE,17,6.0,9.0,91,0.00,,,0.41,Wunderground v.1.15,2013-08-24 00:36:00,
2013-08-23 20:42:00,71.1,68.7,30.01,NNE,26,5.0,9.0,92,0.00,,,0.41,Wunderground v.1.15,2013-08-24 00:42:00,
2013-08-23 20:48:00,71.1,68.7,30.02,North,5,4.0,9.0,92,0.00,,,0.41,Wunderground v.1.15,2013-08-24 00:48:00,
2013-08-23 20:53:00,71.0,68.6,30.02,NE,38,5.0,10.0,92,0.00,,,0.41,Wunderground v.1.15,2013-08-24 00:53:00,
2013-08-23 20:59:00,71.1,68.7,30.02,North,5,5.0,10.0,92,0.00,,,0.41,Wunderground v.1.15,2013-08-24 00:59:00,
2013-08-23 21:05:00,71.1,68.7,30.02,NNE,13,5.0,12.0,92,0.00,,,0.41,Wunderground v.1.15,2013-08-24 01:05:00,
2013-08-23 21:11:00,71.1,68.7,30.02,NNE,27,6.0,6.0,92,0.00,,,0.41,Wunderground v.1.15,2013-08-24 01:11:00,
2013-08-23 21:16:00,71.1,68.7,30.03,North,10,6.0,6.0,92,0.00,,,0.41,Wunderground v.1.15,2013-08-24 01:16:00,
2013-08-23 21:22:00,71.0,68.6,30.04,North,5,6.0,10.0,92,0.00,,,0.41,Wunderground v.1.15,2013-08-24 01:22:00,
2013-08-23 21:28:00,71.0,68.6,30.04,NNE,33,6.0,12.0,92,0.00,,,0.41,Wunderground v.1.15,2013-08-24 01:28:00,
2013-08-23 21:34:00,71.0,68.6,30.04,NE,40,6.0,10.0,92,0.00,,,0.41,Wunderground v.1.15,2013-08-24 01:34:00,
2013-08-23 21:39:00,71.0,68.6,30.05,NNE,24,5.0,10.0,92,0.00,,,0.41,Wunderground v.1.15,2013-08-24 01:39:00,
2013-08-23 21:45:00,70.9,68.5,30.05,NE,34,5.0,6.0,92,0.00,,,0.41,Wunderground v.1.15,2013-08-24 01:45:00,
2013-08-23 21:51:00,70.3,67.9,30.05,NE,46,7.0,16.0,92,0.00,,,0.41,Wunderground v.1.15,2013-08-24 01:51:00,
2013-08-23 21:56:00,69.8,67.7,30.05,North,5,9.0,16.0,93,0.00,,,0.41,Wunderground v.1.15,2013-08-24 01:56:00,
2013-08-23 22:02:00,69.4,67.6,30.06,NE,49,8.0,10.0,94,0.00,,,0.41,Wunderground v.1.15,2013-08-24 02:02:00,
2013-08-23 22:08:00,68.9,66.8,30.06,NNE,19,7.0,12.0,93,0.00,,,0.41,Wunderground v.1.15,2013-08-24 02:08:00,
2013-08-23 22:14:00,68.5,66.1,30.06,North,355,8.0,14.0,92,0.00,,,0.41,Wunderground v.1.15,2013-08-24 02:14:00,
2013-08-23 22:19:00,68.3,65.9,30.06,North,360,8.0,14.0,92,0.00,,,0.41,Wunderground v.1.15,2013-08-24 02:19:00,
2013-08-23 22:25:00,68.1,65.4,30.06,NNE,32,5.0,10.0,91,0.00,,,0.41,Wunderground v.1.15,2013-08-24 02:25:00,
2013-08-23 22:31:00,68.0,65.3,30.06,NNE,15,4.0,5.0,91,0.00,,,0.41,Wunderground v.1.15,2013-08-24 02:31:00,
2013-08-23 22:37:00,67.9,65.2,30.06,NE,51,5.0,8.0,91,0.00,,,0.41,Wunderground v.1.15,2013-08-24 02:37:00,
2013-08-23 22:42:00,67.8,64.8,30.06,NE,53,4.0,6.0,90,0.00,,,0.41,Wunderground v.1.15,2013-08-24 02:42:00,
2013-08-23 22:48:00,67.7,64.7,30.06,NNE,32,4.0,6.0,90,0.00,,,0.41,Wunderground v.1.15,2013-08-24 02:48:00,
2013-08-23 22:54:00,67.7,64.7,30.06,NE,46,4.0,5.0,90,0.00,,,0.41,Wunderground v.1.15,2013-08-24 02:54:00,
2013-08-23 23:00:00,67.6,64.6,30.06,NE,34,4.0,4.0,90,0.00,,,0.41,Wunderground v.1.15,2013-08-24 03:00:00,
2013-08-23 23:06:00,67.7,65.0,30.07,NNE,32,4.0,6.0,91,0.00,,,0.41,Wunderground v.1.15,2013-08-24 03:06:00,
2013-08-23 23:12:00,67.6,64.9,30.07,North,360,3.0,9.0,91,0.00,,,0.41,Wunderground v.1.15,2013-08-24 03:12:00,
2013-08-23 23:18:00,67.6,64.9,30.07,North,355,4.0,9.0,91,0.00,,,0.41,Wunderground v.1.15,2013-08-24 03:18:00,
2013-08-23 23:24:00,67.6,64.9,30.07,NE,46,4.0,5.0,91,0.00,,,0.41,Wunderground v.1.15,2013-08-24 03:24:00,
2013-08-23 23:30:00,67.6,64.9,30.07,NNE,17,4.0,4.0,91,0.00,,,0.41,Wunderground v.1.15,2013-08-24 03:30:00,
2013-08-23 23:36:00,67.6,64.9,30.08,North,350,4.0,6.0,91,0.00,,,0.41,Wunderground v.1.15,2013-08-24 03:36:00,
2013-08-23 23:41:00,67.7,65.0,30.08,NNE,20,3.0,6.0,91,0.00,,,0.41,Wunderground v.1.15,2013-08-24 03:41:00,
2013-08-23 23:47:00,67.6,64.9,30.08,NNE,13,4.0,9.0,91,0.00,,,0.41,Wunderground v.1.15,2013-08-24 03:47:00,
2013-08-23 23:53:00,67.5,64.8,30.08,NNE,13,5.0,10.0,91,0.00,,,0.41,Wunderground v.1.15,2013-08-24 03:53:00,
2013-08-23 23:58:00,67.4,65.0,30.08,NE,36,5.0,10.0,92,0.00,,,0.41,Wunderground v.1.15,2013-08-24 03:58:00,